sat.trackr.live / text

‹ back to catalog

STARLINK-34983

NORAD 65411 · 2025-192H

PAYLOAD ACTIVE UNKNOWN

§ Identity

Operator
Country
US
Launch date
2025-08-31
Launch site
AFETR
Launch vehicle
Mass (kg)
RCS (m²)

Purposes: comms

External: N2YO · Heavens-Above · Gunter

§ Orbital elements

Epoch: 2026-05-24T23:46:42.369024Z

Period
94.01 min
Inclination
53.1584°
Eccentricity
0.0001052
Mean motion
15.31710744 rev/d
Perigee alt
470.0 km
Apogee alt
471.4 km
Semi-major
6,848.8 km
B*
5.6955e-4
RAAN
237.4168°
Arg perigee
76.8995°
Mean anomaly
283.2124°
Rev number
4,107

§ Raw data

STARLINK-349831 65411U 25192H   26144.99076816  .00017356  00000+0  56955-3 0  99932 65411  53.1584 237.4168 0001052  76.8995 283.2124 15.31710744 41075

JSON: /api/v1/satellites/65411 · /tle

For live sub-satellite position, see the globe view (requires WebGL).

§ Visibility from observer

Set your observer location to see the next 7 days of passes ≥ 10°. The values pass through the URL so the page stays shareable.

No JS? Fill the form by hand. The geolocation button needs JavaScript.